Weather in Muravl

Russia / Oryol Oblast     52°21′21″N   35°52′48″E
temp.,
°C
wind,
m/s
gust,
m/s
humid.,
%
clouds,
%
prec.,
mm/h
press.,
hPa
HPBL,
m
5 august, thu
thu500:00+16ese22651 0.0 101816
03:00+15se336790 0.0 101836
06:00+15se237176 0.0 101749
09:00+20sse4657100 0.0 1016332
12:00+20ese2361100 0.1 101660
15:00+26ssw4841100 0.1 10141592
18:00+20ese3581100 1.1 1013106
21:00+19sse478481 2.7 1013128
6 august, fri
fri600:00+19se2281100 0.4 101236
03:00+19sse3378100 0.6 101254
06:00+18se3777100 0.0 1011136
09:00+23sse585590 0.0 1009320
12:00+28sse573999 0.0 10091136
15:00+31ssw473183 0.0 10072283
18:00+30se364212 0.0 1005194
21:00+24sse111859100 0.1 1005485
7 august, sat
sat700:00+23s51166100 0.2 1006214
03:00+19sse388898 1.3 1007156
06:00+19sse31086100 0.6 1008302
09:00+23sse5136998 0.8 1007654
12:00+26s5649100 0.3 10081188
15:00+28sse4645100 0.6 10071514
18:00+26s2360100 0.1 1008285
21:00+20nw4890100 2.0 1010249
8 august, sun
sun800:00+19nnw3988100 2.6 1011343
03:00+18n2693100 6.1 1013277
06:00+17nnw4892100 0.1 1013226
09:00+19n5872100 0.1 1015458
12:00+23n455121 0.0 10161048
15:00+25nne444567 0.0 10151212
18:00+24ne345424 0.0 1016658
21:00+20ene226699 0.0 101723
9 august, mon
mon900:00+18nne22705 0.0 101813
03:00+17nne33760 0.0 101840
06:00+16nne34780 0.0 101863
09:00+22ne34594 0.0 1018424
12:00+25ne22510 0.0 10181236
15:00+27nne22450 0.0 10171669
18:00+27nne22470 0.0 1017833
21:00+21ne22630 0.0 101811